| time (UTC) | temp F | wind direction | speed MPH | gust MPH | rain 1hr in | rain 24hr in | rain mn in | humidity % | barometer mb |
| 20260901203904 | 72 | 232 | 1.0 | 5.0 | 0.00 | 0.11 | 0.11 | 37 | 1018.8 |
| 20260901202904 | 72 | 212 | 1.0 | 7.0 | 0.00 | 0.11 | 0.11 | 38 | 1018.9 |
| 20260901201904 | 71 | 226 | 1.0 | 5.0 | 0.00 | 0.11 | 0.11 | 38 | 1019.0 |
| 20260901201404 | 71 | 226 | 2.0 | 6.0 | 0.00 | 0.11 | 0.11 | 39 | 1019.1 |
| 20260901200904 | 71 | 252 | 0.0 | 7.0 | 0.00 | 0.11 | 0.11 | 40 | 1019.3 |
| 20260901200404 | 71 | 239 | 0.0 | 0.0 | 0.00 | 0.11 | 0.11 | 40 | 1019.4 |
| 20260901195404 | 70 | 232 | 2.0 | 7.0 | 0.00 | 0.11 | 0.11 | 42 | 1019.5 |
| 20260901194904 | 70 | 230 | 1.0 | 3.0 | 0.00 | 0.11 | 0.11 | 42 | 1019.5 |
| 20260901194404 | 70 | 235 | 2.0 | 8.0 | 0.00 | 0.11 | 0.11 | 43 | 1019.6 |
| 20260901193904 | 69 | 239 | 0.0 | 6.0 | 0.00 | 0.11 | 0.11 | 45 | 1019.7 |
| 20260901193404 | 68 | 227 | 3.0 | 10.0 | 0.00 | 0.11 | 0.11 | 45 | 1019.7 |
| 20260901192904 | 68 | 234 | 2.0 | 5.0 | 0.00 | 0.11 | 0.11 | 45 | 1019.8 |
| 20260901192404 | 68 | 227 | 1.0 | 6.0 | 0.00 | 0.11 | 0.11 | 47 | 1019.8 |
| 20260901191904 | 68 | 232 | 1.0 | 3.0 | 0.00 | 0.11 | 0.11 | 46 | 1019.7 |
| 20260901190904 | 67 | 225 | 0.0 | 0.0 | 0.00 | 0.11 | 0.11 | 48 | 1019.8 |
| 20260901190404 | 66 | 225 | 5.0 | 9.0 | 0.00 | 0.11 | 0.11 | 49 | 1019.8 |
| 20260901185904 | 66 | 51 | 1.0 | 3.0 | 0.00 | 0.11 | 0.11 | 52 | 1019.9 |
| 20260901185404 | 65 | 51 | 0.0 | 0.0 | 0.00 | 0.11 | 0.11 | 55 | 1019.9 |
| 20260901184404 | 64 | 51 | 0.0 | 0.0 | 0.00 | 0.11 | 0.11 | 57 | 1020.0 |
| 20260901183904 | 64 | 51 | 0.0 | 0.0 | 0.00 | 0.11 | 0.11 | 56 | 1020.0 |
| 20260901183404 | 63 | 51 | 1.0 | 3.0 | 0.00 | 0.11 | 0.11 | 59 | 1020.0 |
| 20260901182904 | 63 | 46 | 1.0 | 5.0 | 0.00 | 0.11 | 0.11 | 59 | 1020.0 |
| 20260901182404 | 62 | 47 | 0.0 | 0.0 | 0.00 | 0.11 | 0.11 | 62 | 1020.0 |
| 20260901181904 | 62 | 47 | 0.0 | 3.0 | 0.00 | 0.11 | 0.11 | 61 | 1020.1 |
| 20260901180904 | 62 | 52 | 1.0 | 6.0 | 0.00 | 0.11 | 0.11 | 65 | 1020.1 |
| 20260901180404 | 61 | 56 | 0.0 | 0.0 | 0.00 | 0.11 | 0.11 | 67 | 1020.3 |
| 20260901175904 | 61 | 56 | 1.0 | 2.0 | 0.00 | 0.11 | 0.11 | 68 | 1020.4 |
| 20260901175404 | 60 | 51 | 0.0 | 0.0 | 0.00 | 0.11 | 0.11 | 70 | 1020.4 |
| 20260901174904 | 60 | 51 | 0.0 | 0.0 | 0.00 | 0.11 | 0.11 | 71 | 1020.5 |
| 20260901174404 | 60 | 51 | 0.0 | 0.0 | 0.00 | 0.11 | 0.11 | 75 | 1020.5 |
| 20260901173904 | 59 | 51 | 0.0 | 0.0 | 0.00 | 0.11 | 0.11 | 75 | 1020.6 |
| 20260901173404 | 58 | 51 | 0.0 | 0.0 | 0.00 | 0.11 | 0.11 | 75 | 1020.6 |
| 20260901172904 | 58 | 51 | 0.0 | 0.0 | 0.00 | 0.11 | 0.11 | 76 | 1020.7 |
| 20260901172404 | 58 | 48 | 0.0 | 0.0 | 0.00 | 0.11 | 0.11 | 76 | 1020.7 |
| 20260901171404 | 57 | 35 | 0.0 | 0.0 | 0.00 | 0.11 | 0.11 | 77 | 1020.8 |
| 20260901170904 | 57 | 35 | 0.0 | 0.0 | 0.00 | 0.11 | 0.11 | 77 | 1020.8 |
| 20260901170404 | 57 | 35 | 0.0 | 0.0 | 0.00 | 0.11 | 0.11 | 78 | 1020.8 |
| 20260901165904 | 57 | 35 | 0.0 | 0.0 | 0.00 | 0.11 | 0.11 | 78 | 1020.8 |
| 20260901165404 | 57 | 35 | 0.0 | 0.0 | 0.00 | 0.11 | 0.11 | 78 | 1020.8 |
| 20260901164904 | 56 | 35 | 0.0 | 0.0 | 0.00 | 0.11 | 0.11 | 78 | 1020.8 |
| 20260901164404 | 56 | 35 | 0.0 | 0.0 | 0.00 | 0.11 | 0.11 | 78 | 1020.7 |
| 20260901163904 | 56 | 35 | 0.0 | 0.0 | 0.00 | 0.11 | 0.11 | 79 | 1020.7 |
| 20260901163404 | 56 | 35 | 0.0 | 0.0 | 0.00 | 0.11 | 0.11 | 79 | 1020.7 |
| 20260901162904 | 56 | 35 | 0.0 | 0.0 | 0.00 | 0.11 | 0.11 | 79 | 1020.7 |
| 20260901161404 | 56 | 35 | 0.0 | 0.0 | 0.00 | 0.11 | 0.11 | 79 | 1020.6 |
| 20260901160404 | 56 | 35 | 0.0 | 0.0 | 0.01 | 0.11 | 0.11 | 79 | 1020.6 |
| 20260901155904 | 56 | 35 | 0.0 | 0.0 | 0.02 | 0.11 | 0.11 | 79 | 1020.6 |
| 20260901154904 | 55 | 35 | 0.0 | 0.0 | 0.03 | 0.11 | 0.11 | 79 | 1020.6 |
| 20260901153904 | 55 | 35 | 0.0 | 0.0 | 0.06 | 0.11 | 0.11 | 79 | 1020.6 |
| 20260901153404 | 55 | 35 | 0.0 | 0.0 | 0.06 | 0.11 | 0.11 | 79 | 1020.6 |
| 20260901152904 | 55 | 35 | 0.0 | 0.0 | 0.07 | 0.11 | 0.11 | 79 | 1020.7 |
| 20260901152404 | 55 | 35 | 0.0 | 0.0 | 0.07 | 0.11 | 0.11 | 79 | 1020.6 |
| 20260901151904 | 55 | 35 | 0.0 | 0.0 | 0.07 | 0.11 | 0.11 | 79 | 1020.6 |
| 20260901151404 | 55 | 35 | 0.0 | 0.0 | 0.07 | 0.11 | 0.11 | 78 | 1020.6 |
| 20260901150904 | 55 | 35 | 0.0 | 0.0 | 0.06 | 0.10 | 0.10 | 78 | 1020.6 |
| 20260901150404 | 54 | 35 | 0.0 | 0.0 | 0.06 | 0.10 | 0.10 | 78 | 1020.6 |
| 20260901145904 | 54 | 35 | 0.0 | 0.0 | 0.05 | 0.09 | 0.09 | 78 | 1020.7 |
| 20260901145404 | 54 | 35 | 0.0 | 0.0 | 0.05 | 0.09 | 0.09 | 78 | 1020.6 |
| 20260901144404 | 54 | 35 | 0.0 | 0.0 | 0.02 | 0.06 | 0.06 | 78 | 1020.5 |
| 20260901143905 | 54 | 35 | 0.0 | 0.0 | 0.01 | 0.05 | 0.05 | 78 | 1020.6 |
| 20260901143404 | 54 | 35 | 0.0 | 0.0 | 0.01 | 0.05 | 0.05 | 78 | 1020.5 |
| 20260901142404 | 54 | 35 | 0.0 | 0.0 | 0.00 | 0.04 | 0.04 | 78 | 1020.3 |
| 20260901141904 | 54 | 35 | 0.0 | 0.0 | 0.00 | 0.04 | 0.04 | 78 | 1020.3 |
| 20260901141404 | 54 | 35 | 0.0 | 0.0 | 0.00 | 0.04 | 0.04 | 78 | 1020.3 |
| 20260901140904 | 54 | 35 | 0.0 | 0.0 | 0.00 | 0.04 | 0.04 | 78 | 1020.3 |
| 20260901140404 | 54 | 35 | 0.0 | 0.0 | 0.00 | 0.04 | 0.04 | 78 | 1020.3 |
| 20260901135904 | 54 | 35 | 0.0 | 0.0 | 0.00 | 0.04 | 0.04 | 78 | 1020.3 |
| 20260901135404 | 54 | 35 | 0.0 | 0.0 | 0.01 | 0.04 | 0.04 | 77 | 1020.2 |
| 20260901134404 | 54 | 35 | 0.0 | 0.0 | 0.02 | 0.04 | 0.04 | 77 | 1020.1 |
| 20260901133904 | 54 | 35 | 0.0 | 0.0 | 0.03 | 0.04 | 0.04 | 77 | 1020.1 |
| 20260901133404 | 54 | 35 | 0.0 | 0.0 | 0.03 | 0.04 | 0.04 | 77 | 1020.2 |
| 20260901132904 | 54 | 35 | 0.0 | 0.0 | 0.03 | 0.04 | 0.04 | 77 | 1020.1 |
| 20260901131904 | 54 | 35 | 0.0 | 0.0 | 0.03 | 0.04 | 0.04 | 77 | 1020.1 |
| 20260901130904 | 54 | 35 | 0.0 | 0.0 | 0.03 | 0.04 | 0.04 | 76 | 1020.1 |
| 20260901130404 | 54 | 35 | 0.0 | 0.0 | 0.03 | 0.04 | 0.04 | 76 | 1020.0 |
| 20260901125904 | 54 | 35 | 0.0 | 0.0 | 0.03 | 0.04 | 0.04 | 76 | 1020.1 |
| 20260901124904 | 54 | 35 | 0.0 | 0.0 | 0.02 | 0.03 | 0.03 | 76 | 1019.9 |
| 20260901124404 | 54 | 35 | 0.0 | 0.0 | 0.01 | 0.02 | 0.02 | 76 | 1020.0 |
| 20260901123904 | 54 | 35 | 0.0 | 0.0 | 0.00 | 0.01 | 0.01 | 75 | 1019.9 |
| 20260901123404 | 54 | 35 | 0.0 | 0.0 | 0.00 | 0.01 | 0.01 | 75 | 1019.9 |
| 20260901122404 | 54 | 35 | 0.0 | 0.0 | 0.00 | 0.01 | 0.01 | 75 | 1020.0 |
| 20260901121904 | 54 | 35 | 0.0 | 0.0 | 0.00 | 0.01 | 0.01 | 75 | 1020.0 |
| 20260901120904 | 54 | 35 | 0.0 | 0.0 | 0.00 | 0.01 | 0.01 | 75 | 1019.9 |
| 20260901120404 | 54 | 35 | 0.0 | 0.0 | 0.00 | 0.01 | 0.01 | 75 | 1019.9 |
| 20260901115904 | 54 | 35 | 0.0 | 0.0 | 0.00 | 0.01 | 0.01 | 75 | 1019.9 |
| 20260901115404 | 54 | 35 | 0.0 | 0.0 | 0.00 | 0.01 | 0.01 | 75 | 1019.9 |
| 20260901114904 | 54 | 35 | 0.0 | 0.0 | 0.00 | 0.01 | 0.01 | 75 | 1019.9 |
| 20260901114404 | 54 | 35 | 0.0 | 0.0 | 0.00 | 0.01 | 0.01 | 75 | 1019.9 |
| 20260901113904 | 54 | 35 | 0.0 | 0.0 | 0.00 | 0.01 | 0.01 | 75 | 1019.8 |
| 20260901112904 | 54 | 35 | 0.0 | 0.0 | 0.00 | 0.01 | 0.01 | 75 | 1019.7 |
| 20260901112404 | 54 | 35 | 0.0 | 0.0 | 0.00 | 0.01 | 0.01 | 75 | 1019.6 |
| 20260901111904 | 54 | 35 | 0.0 | 0.0 | 0.00 | 0.01 | 0.01 | 74 | 1019.5 |
| 20260901111404 | 54 | 35 | 0.0 | 0.0 | 0.01 | 0.01 | 0.01 | 74 | 1019.5 |
| 20260901110904 | 54 | 35 | 0.0 | 0.0 | 0.01 | 0.01 | 0.01 | 74 | 1019.7 |
| 20260901110404 | 55 | 35 | 0.0 | 0.0 | 0.01 | 0.01 | 0.01 | 73 | 1019.7 |
| 20260901105904 | 55 | 34 | 0.0 | 0.0 | 0.01 | 0.01 | 0.01 | 73 | 1019.6 |
| 20260901105404 | 55 | 34 | 0.0 | 0.0 | 0.01 | 0.01 | 0.01 | 72 | 1019.4 |
| 20260901104904 | 55 | 34 | 0.0 | 0.0 | 0.01 | 0.01 | 0.01 | 72 | 1019.4 |
| 20260901104404 | 55 | 34 | 0.0 | 0.0 | 0.01 | 0.01 | 0.01 | 72 | 1019.4 |
| 20260901103904 | 55 | 34 | 0.0 | 0.0 | 0.01 | 0.01 | 0.01 | 72 | 1019.4 |
| 20260901102404 | 55 | 34 | 0.0 | 0.0 | 0.01 | 0.01 | 0.01 | 71 | 1019.5 |
| 20260901101904 | 56 | 34 | 0.0 | 0.0 | 0.01 | 0.01 | 0.01 | 71 | 1019.6 |
| 20260901101404 | 56 | 34 | 0.0 | 0.0 | 0.00 | 0.00 | 0.00 | 71 | 1019.5 |
| 20260901100904 | 56 | 34 | 0.0 | 0.0 | 0.00 | 0.00 | 0.00 | 71 | 1019.5 |
| 20260901100404 | 56 | 34 | 0.0 | 0.0 | 0.00 | 0.00 | 0.00 | 70 | 1019.4 |
| 20260901095404 | 56 | 34 | 0.0 | 0.0 | 0.00 | 0.00 | 0.00 | 69 | 1019.7 |
| 20260901094904 | 56 | 34 | 0.0 | 0.0 | 0.00 | 0.00 | 0.00 | 68 | 1019.7 |
| 20260901094404 | 56 | 34 | 0.0 | 0.0 | 0.00 | 0.00 | 0.00 | 68 | 1019.5 |
| 20260901093404 | 57 | 34 | 0.0 | 0.0 | 0.00 | 0.00 | 0.00 | 68 | 1019.5 |
| 20260901092904 | 57 | 34 | 0.0 | 0.0 | 0.00 | 0.00 | 0.00 | 67 | 1019.6 |
| 20260901092404 | 57 | 34 | 0.0 | 0.0 | 0.00 | 0.00 | 0.00 | 66 | 1019.5 |
| 20260901091905 | 57 | 34 | 0.0 | 0.0 | 0.00 | 0.00 | 0.00 | 65 | 1019.5 |
| 20260901091404 | 57 | 34 | 0.0 | 0.0 | 0.00 | 0.00 | 0.00 | 65 | 1019.4 |
| 20260901090904 | 57 | 34 | 0.0 | 0.0 | 0.00 | 0.00 | 0.00 | 65 | 1019.6 |
| 20260901090404 | 57 | 34 | 0.0 | 0.0 | 0.00 | 0.00 | 0.00 | 65 | 1019.7 |
| 20260901085904 | 57 | 34 | 0.0 | 0.0 | 0.00 | 0.00 | 0.00 | 64 | 1019.6 |
| 20260901085404 | 57 | 34 | 0.0 | 0.0 | 0.00 | 0.00 | 0.00 | 64 | 1019.6 |
| 20260901084904 | 57 | 34 | 0.0 | 0.0 | 0.00 | 0.00 | 0.00 | 63 | 1019.6 |
| 20260901084404 | 57 | 34 | 0.0 | 0.0 | 0.00 | 0.00 | 0.00 | 63 | 1019.5 |
| 20260901083904 | 57 | 34 | 0.0 | 0.0 | 0.00 | 0.00 | 0.00 | 63 | 1019.6 |
| 20260901083404 | 57 | 34 | 0.0 | 0.0 | 0.00 | 0.00 | 0.00 | 61 | 1019.6 |
| 20260901082404 | 57 | 34 | 0.0 | 0.0 | 0.00 | 0.00 | 0.00 | 61 | 1019.6 |
| 20260901081904 | 57 | 34 | 0.0 | 0.0 | 0.00 | 0.00 | 0.00 | 60 | 1019.8 |
| 20260901080905 | 57 | 34 | 0.0 | 0.0 | 0.00 | 0.00 | 0.00 | 59 | 1019.9 |
| 20260901080404 | 57 | 34 | 0.0 | 0.0 | 0.00 | 0.00 | 0.00 | 59 | 1019.9 |
| 20260901075904 | 57 | 32 | 0.0 | 0.0 | 0.00 | 0.00 | 0.00 | 60 | 1019.8 |
| 20260901075404 | 57 | 32 | 0.0 | 0.0 | 0.00 | 0.00 | 0.00 | 60 | 1019.8 |
| 20260901074405 | 57 | 32 | 0.0 | 0.0 | 0.00 | 0.00 | 0.00 | 60 | 1019.8 |
| 20260901073904 | 57 | 32 | 0.0 | 0.0 | 0.00 | 0.00 | 0.00 | 60 | 1019.9 |
| 20260901072904 | 57 | 32 | 0.0 | 0.0 | 0.00 | 0.00 | 0.00 | 61 | 1019.7 |
| 20260901071904 | 57 | 32 | 0.0 | 0.0 | 0.00 | 0.00 | 0.00 | 59 | 1019.7 |
| 20260901071404 | 57 | 32 | 0.0 | 0.0 | 0.00 | 0.00 | 0.00 | 59 | 1019.7 |
| 20260901070904 | 57 | 32 | 0.0 | 0.0 | 0.00 | 0.00 | 0.00 | 59 | 1019.6 |
| 20260901070404 | 57 | 32 | 0.0 | 0.0 | 0.00 | 0.00 | 0.00 | 60 | 1019.5 |
| 20260901065904 | 57 | 32 | 0.0 | 0.0 | 0.00 | 0.00 | 0.00 | 60 | 1019.6 |
| 20260901065404 | 57 | 32 | 0.0 | 0.0 | 0.00 | 0.00 | 0.00 | 59 | 1019.7 |
| 20260901064904 | 57 | 32 | 0.0 | 0.0 | 0.00 | 0.00 | 0.00 | 59 | 1019.7 |
| 20260901064404 | 57 | 32 | 0.0 | 0.0 | 0.00 | 0.00 | 0.00 | 59 | 1019.7 |
| 20260901063904 | 57 | 32 | 0.0 | 0.0 | 0.00 | 0.00 | 0.00 | 59 | 1019.7 |
| 20260901062904 | 57 | 32 | 0.0 | 0.0 | 0.00 | 0.00 | 0.00 | 58 | 1019.8 |
| 20260901062404 | 57 | 32 | 0.0 | 0.0 | 0.00 | 0.00 | 0.00 | 58 | 1019.7 |
| 20260901061904 | 57 | 32 | 0.0 | 0.0 | 0.00 | 0.00 | 0.00 | 59 | 1019.7 |
| 20260901061404 | 57 | 32 | 0.0 | 0.0 | 0.00 | 0.00 | 0.00 | 59 | 1019.7 |
| 20260901060904 | 57 | 32 | 0.0 | 0.0 | 0.00 | 0.00 | 0.00 | 58 | 1019.6 |
| 20260901060404 | 58 | 32 | 0.0 | 0.0 | 0.00 | 0.00 | 0.00 | 57 | 1019.6 |
| 20260901055404 | 58 | 32 | 0.0 | 0.0 | 0.00 | 0.00 | 0.00 | 56 | 1019.5 |
| 20260901054904 | 58 | 32 | 0.0 | 0.0 | 0.00 | 0.00 | 0.00 | 55 | 1019.5 |
| 20260901052904 | 58 | 32 | 0.0 | 0.0 | 0.00 | 0.00 | 0.00 | 56 | 1019.5 |
| 20260901052404 | 58 | 32 | 0.0 | 0.0 | 0.00 | 0.00 | 0.00 | 56 | 1019.4 |
| 20260901051404 | 59 | 32 | 0.0 | 0.0 | 0.00 | 0.00 | 0.00 | 55 | 1019.5 |
| 20260901050904 | 59 | 32 | 0.0 | 0.0 | 0.00 | 0.00 | 0.00 | 56 | 1019.5 |
| 20260901050404 | 59 | 32 | 0.0 | 0.0 | 0.00 | 0.00 | 0.00 | 56 | 1019.5 |
| 20260901045904 | 59 | 32 | 0.0 | 0.0 | 0.00 | 0.00 | 0.00 | 56 | 1019.5 |
| 20260901045404 | 59 | 32 | 0.0 | 0.0 | 0.00 | 0.00 | 0.00 | 54 | 1019.5 |
| 20260901044904 | 60 | 32 | 0.0 | 0.0 | 0.00 | 0.00 | 0.00 | 53 | 1019.5 |
| 20260901044404 | 60 | 32 | 0.0 | 0.0 | 0.00 | 0.00 | 0.00 | 50 | 1019.5 |
| 20260901043404 | 60 | 32 | 0.0 | 0.0 | 0.00 | 0.00 | 0.00 | 51 | 1019.4 |
| 20260901042904 | 60 | 32 | 0.0 | 0.0 | 0.00 | 0.00 | 0.00 | 51 | 1019.5 |
| 20260901042404 | 60 | 32 | 0.0 | 0.0 | 0.00 | 0.00 | 0.00 | 50 | 1019.5 |
| 20260901041904 | 60 | 32 | 0.0 | 0.0 | 0.00 | 0.00 | 0.00 | 49 | 1019.4 |
| 20260901041404 | 61 | 32 | 0.0 | 0.0 | 0.00 | 0.00 | 0.00 | 50 | 1019.4 |
| 20260901040905 | 61 | 32 | 0.0 | 0.0 | 0.00 | 0.00 | 0.00 | 49 | 1019.3 |
| 20260901040404 | 61 | 32 | 0.0 | 0.0 | 0.00 | 0.00 | 0.00 | 49 | 1019.3 |
| 20260901035904 | 61 | 32 | 0.0 | 0.0 | 0.00 | 0.00 | 0.00 | 49 | 1019.3 |
| 20260901035404 | 61 | 32 | 0.0 | 0.0 | 0.00 | 0.00 | 0.00 | 48 | 1019.2 |
| 20260901034904 | 62 | 32 | 0.0 | 0.0 | 0.00 | 0.00 | 0.00 | 49 | 1019.3 |
| 20260901033404 | 62 | 32 | 0.0 | 0.0 | 0.00 | 0.00 | 0.00 | 47 | 1019.2 |
| 20260901032904 | 62 | 32 | 0.0 | 0.0 | 0.00 | 0.00 | 0.00 | 47 | 1019.1 |
| 20260901032404 | 62 | 32 | 0.0 | 0.0 | 0.00 | 0.00 | 0.00 | 46 | 1019.1 |
| 20260901031904 | 62 | 32 | 0.0 | 0.0 | 0.00 | 0.00 | 0.00 | 45 | 1019.0 |
| 20260901030905 | 63 | 32 | 0.0 | 0.0 | 0.00 | 0.00 | 0.00 | 44 | 1018.9 |
| 20260901030404 | 63 | 32 | 0.0 | 0.0 | 0.00 | 0.00 | 0.00 | 45 | 1018.8 |
| 20260901025904 | 63 | 32 | 0.0 | 0.0 | 0.00 | 0.00 | 0.00 | 43 | 1018.8 |
| 20260901025404 | 64 | 32 | 0.0 | 0.0 | 0.00 | 0.00 | 0.00 | 44 | 1018.6 |
| 20260901024904 | 64 | 32 | 0.0 | 0.0 | 0.00 | 0.00 | 0.00 | 44 | 1018.6 |
| 20260901024404 | 64 | 32 | 0.0 | 0.0 | 0.00 | 0.00 | 0.00 | 42 | 1018.6 |
| 20260901023904 | 64 | 32 | 0.0 | 0.0 | 0.00 | 0.00 | 0.00 | 43 | 1018.6 |
| 20260901023406 | 65 | 32 | 0.0 | 0.0 | 0.00 | 0.00 | 0.00 | 42 | 1018.5 |
| 20260901022904 | 66 | 32 | 0.0 | 0.0 | 0.00 | 0.00 | 0.00 | 40 | 1018.5 |
| 20260901022404 | 67 | 32 | 0.0 | 0.0 | 0.00 | 0.00 | 0.00 | 40 | 1018.4 |
| 20260901021904 | 67 | 32 | 0.0 | 0.0 | 0.00 | 0.00 | 0.00 | 40 | 1018.4 |
| 20260901021404 | 68 | 32 | 0.0 | 0.0 | 0.00 | 0.00 | 0.00 | 37 | 1018.3 |
| 20260901020904 | 68 | 32 | 0.0 | 0.0 | 0.00 | 0.00 | 0.00 | 38 | 1018.2 |
| 20260901020404 | 68 | 32 | 0.0 | 0.0 | 0.00 | 0.00 | 0.00 | 37 | 1018.0 |
| 20260901015904 | 69 | 32 | 0.0 | 0.0 | 0.00 | 0.00 | 0.00 | 33 | 1018.1 |
| 20260901015404 | 69 | 32 | 0.0 | 0.0 | 0.00 | 0.00 | 0.00 | 32 | 1018.0 |
| 20260901014904 | 70 | 32 | 0.0 | 0.0 | 0.00 | 0.00 | 0.00 | 34 | 1018.1 |
| 20260901014404 | 70 | 32 | 0.0 | 0.0 | 0.00 | 0.00 | 0.00 | 33 | 1017.9 |
| 20260901013904 | 71 | 32 | 0.0 | 0.0 | 0.00 | 0.00 | 0.00 | 34 | 1017.9 |
| 20260901013404 | 71 | 32 | 0.0 | 0.0 | 0.00 | 0.00 | 0.00 | 33 | 1017.8 |
| 20260901012904 | 72 | 32 | 0.0 | 0.0 | 0.00 | 0.00 | 0.00 | 33 | 1017.9 |
| 20260901012404 | 72 | 32 | 0.0 | 1.0 | 0.00 | 0.00 | 0.00 | 33 | 1017.9 |
| 20260901011904 | 73 | 225 | 0.0 | 0.0 | 0.00 | 0.00 | 0.00 | 31 | 1018.0 |
| 20260901011404 | 73 | 225 | 0.0 | 0.0 | 0.00 | 0.00 | 0.00 | 30 | 1018.0 |
| 20260901010904 | 74 | 225 | 0.0 | 0.0 | 0.00 | 0.00 | 0.00 | 30 | 1017.9 |
| 20260901010404 | 74 | 225 | 0.0 | 0.0 | 0.00 | 0.00 | 0.00 | 29 | 1018.0 |
| 20260901005904 | 75 | 225 | 0.0 | 0.0 | 0.00 | 0.00 | 0.00 | 27 | 1018.0 |
| 20260901005404 | 76 | 225 | 0.0 | 0.0 | 0.00 | 0.00 | 0.00 | 27 | 1018.1 |
| 20260901004904 | 76 | 225 | 0.0 | 0.0 | 0.00 | 0.00 | 0.00 | 27 | 1018.1 |
| 20260901003905 | 77 | 225 | 0.0 | 0.0 | 0.00 | 0.00 | 0.00 | 25 | 1018.1 |
| 20260901003404 | 78 | 225 | 0.0 | 0.0 | 0.00 | 0.00 | 0.00 | 19 | 1018.0 |
| 20260901002904 | 78 | 225 | 0.0 | 0.0 | 0.00 | 0.00 | 0.00 | 20 | 1018.1 |
| 20260901002404 | 78 | 225 | 0.0 | 0.0 | 0.00 | 0.00 | 0.00 | 14 | 1018.1 |
| 20260901001904 | 78 | 225 | 0.0 | 0.0 | 0.00 | 0.00 | 0.00 | 15 | 1018.1 |
| 20260901001404 | 78 | 225 | 0.0 | 2.0 | 0.00 | 0.00 | 0.00 | 14 | 1018.0 |
| 20260901000904 | 79 | 226 | 1.0 | 3.0 | 0.00 | 0.00 | 0.00 | 13 | 1018.0 |
| 20260901000405 | 79 | 221 | 0.0 | 3.0 | 0.00 | 0.00 | 0.00 | 13 | 1018.1 |
| 20260831235904 | 80 | 231 | 0.0 | 3.0 | 0.00 | 0.00 | 0.00 | 13 | 1018.1 |
| 20260831235404 | 80 | 227 | 1.0 | 3.0 | 0.00 | 0.00 | 0.00 | 12 | 1018.1 |
| 20260831234904 | 80 | 233 | 1.0 | 3.0 | 0.00 | 0.00 | 0.00 | 12 | 1018.0 |
| 20260831233904 | 80 | 225 | 3.0 | 6.0 | 0.00 | 0.00 | 0.00 | 11 | 1018.0 |
| 20260831232904 | 81 | 223 | 1.0 | 5.0 | 0.00 | 0.00 | 0.00 | 12 | 1018.0 |
| 20260831232404 | 81 | 228 | 2.0 | 5.0 | 0.00 | 0.00 | 0.00 | 11 | 1018.1 |
| 20260831231904 | 81 | 214 | 1.0 | 8.0 | 0.00 | 0.00 | 0.00 | 13 | 1018.0 |
| 20260831231404 | 81 | 219 | 1.0 | 3.0 | 0.00 | 0.00 | 0.00 | 13 | 1018.0 |
| 20260831230904 | 81 | 231 | 3.0 | 3.0 | 0.00 | 0.00 | 0.00 | 12 | 1018.1 |
| 20260831230404 | 81 | 224 | 3.0 | 6.0 | 0.00 | 0.00 | 0.00 | 13 | 1018.1 |
| 20260831225904 | 80 | 228 | 4.0 | 7.0 | 0.00 | 0.00 | 0.00 | 12 | 1018.2 |
| 20260831225404 | 80 | 213 | 2.0 | 5.0 | 0.00 | 0.00 | 0.00 | 12 | 1018.2 |
| 20260831224904 | 80 | 221 | 2.0 | 5.0 | 0.00 | 0.00 | 0.00 | 13 | 1018.3 |
| 20260831224404 | 80 | 226 | 5.0 | 8.0 | 0.00 | 0.00 | 0.00 | 12 | 1018.3 |
| 20260831223904 | 80 | 230 | 3.0 | 7.0 | 0.00 | 0.00 | 0.00 | 12 | 1018.3 |
| 20260831223404 | 79 | 227 | 0.0 | 3.0 | 0.00 | 0.00 | 0.00 | 13 | 1018.2 |
| 20260831222904 | 79 | 159 | 0.0 | 3.0 | 0.00 | 0.00 | 0.00 | 11 | 1018.3 |
| 20260831222404 | 79 | 153 | 1.0 | 5.0 | 0.00 | 0.00 | 0.00 | 12 | 1018.4 |
| 20260831221904 | 79 | 134 | 2.0 | 3.0 | 0.00 | 0.00 | 0.00 | 12 | 1018.4 |
| 20260831221404 | 80 | 234 | 1.0 | 5.0 | 0.00 | 0.00 | 0.00 | 10 | 1018.4 |
| 20260831220904 | 79 | 283 | 1.0 | 5.0 | 0.00 | 0.00 | 0.00 | 11 | 1018.4 |
| 20260831220404 | 79 | 92 | 2.0 | 6.0 | 0.00 | 0.00 | 0.00 | 11 | 1018.5 |
| 20260831215904 | 80 | 238 | 1.0 | 5.0 | 0.00 | 0.00 | 0.00 | 10 | 1018.6 |
| 20260831215404 | 80 | 233 | 1.0 | 5.0 | 0.00 | 0.00 | 0.00 | 10 | 1018.7 |
| 20260831214904 | 80 | 220 | 1.0 | 6.0 | 0.00 | 0.00 | 0.00 | 10 | 1018.6 |
| 20260831213904 | 80 | 210 | 0.0 | 3.0 | 0.00 | 0.00 | 0.00 | 11 | 1018.7 |
| 20260831213404 | 80 | 226 | 5.0 | 9.0 | 0.00 | 0.00 | 0.00 | 12 | 1018.7 |
| 20260831212904 | 80 | 223 | 1.0 | 7.0 | 0.00 | 0.00 | 0.00 | 10 | 1018.7 |
| 20260831212404 | 80 | 228 | 3.0 | 8.0 | 0.00 | 0.00 | 0.00 | 11 | 1018.8 |
| 20260831211904 | 80 | 220 | 1.0 | 5.0 | 0.00 | 0.00 | 0.00 | 9 | 1018.8 |
| 20260831210904 | 80 | 228 | 2.0 | 6.0 | 0.00 | 0.00 | 0.00 | 10 | 1019.0 |
| 20260831210404 | 80 | 240 | 3.0 | 10.0 | 0.00 | 0.00 | 0.00 | 9 | 1019.1 |
| 20260831205904 | 80 | 228 | 4.0 | 10.0 | 0.00 | 0.00 | 0.00 | 11 | 1019.2 |
| 20260831204904 | 80 | 235 | 3.0 | 10.0 | 0.00 | 0.00 | 0.00 | 10 | 1019.3 |
| 20260831204404 | 79 | 221 | 4.0 | 7.0 | 0.00 | 0.00 | 0.00 | 10 | 1019.3 |